Change the Weather History Date:

Monday, November 21, 2011

  Actual Average Record
Temperature  
Mean Temperature 42 °F -  
Max Temperature 57 °F 47 °F 66 °F (1975)
Min Temperature 27 °F 28 °F 13 °F (1987)
Degree Days  
Heating Degree Days 22    
Moisture  
Dew Point 31 °F    
Average Humidity 69    
Maximum Humidity 96    
Minimum Humidity 51    
Precipitation  
Precipitation 0.00 in - - ()
Sea Level Pressure  
Sea Level Pressure 30.31 in    
Wind  
Wind Speed 8 mph (NNE)    
Max Wind Speed 12 mph    
Max Gust Speed -    
Visibility 10 miles    
Events      
Averages and records for this station are not official NWS values.
T = Trace of Precipitation, MM = Missing Value Source: NWS Daily Summary

Daily Weather History Graph

Daily Weather History Graph

Search for Another Location

Airport or City:

Trip Planner

Search our weather history database for the weather conditions in past years. The results will help you decide how hot, cold, wet, or windy it might be!

Date:

Astronomy

Nov. 21, 2011 Rise Set
Actual Time 6:43 AM EST 4:18 PM EST
Civil Twilight 6:12 AM EST 4:49 PM EST
Nautical Twilight 5:38 AM EST 5:23 PM EST
Astronomical Twilight 5:04 AM EST 5:56 PM EST
Moon 2:13 AM EST (11/21) 1:42 PM EST (11/21)
Length of Visible Light 10h 36m
Length of Day
9h 35m
Waning Crescent, 18% of the Moon is Illuminated
Nov 21
Waning Crescent
Nov 25
New
Dec 2
First Quarter
Dec 10
Full
Dec 17
Last Quarter

Hourly Weather History & Observations

Time (EST) Temp. Windchill Dew Point Humidity Pressure Visibility Wind Dir Wind Speed Gust Speed Precip Events Conditions
12:56 AM 57.9 °F - 39.9 °F 51% 30.11 in 10.0 mi West 11.5 mph - N/A   Partly Cloudy
1:56 AM 53.1 °F - 39.9 °F 61% 30.14 in 10.0 mi North 10.4 mph - N/A   Partly Cloudy
2:56 AM 51.1 °F - 39.0 °F 63% 30.16 in 10.0 mi North 8.1 mph - N/A   Partly Cloudy
3:56 AM 50.0 °F - 37.9 °F 63% 30.19 in 10.0 mi North 5.8 mph - N/A   Partly Cloudy
4:56 AM 48.0 °F - 37.0 °F 66% 30.22 in 10.0 mi North 9.2 mph - N/A   Clear
5:56 AM 46.0 °F 42.5 °F 36.0 °F 68% 30.25 in 10.0 mi NNW 6.9 mph - N/A   Clear
6:56 AM 44.1 °F 38.6 °F 34.0 °F 68% 30.28 in 10.0 mi North 10.4 mph - N/A   Clear
7:56 AM 43.0 °F 37.7 °F 32.0 °F 65% 30.32 in 10.0 mi North 9.2 mph - N/A   Clear
8:56 AM 44.1 °F 38.6 °F 30.0 °F 58% 30.33 in 10.0 mi North 10.4 mph - N/A   Clear
9:56 AM 44.1 °F 39.5 °F 28.9 °F 55% 30.36 in 10.0 mi North 8.1 mph - N/A   Clear
10:56 AM 45.0 °F 40.1 °F 28.9 °F 53% 30.35 in 10.0 mi NNE 9.2 mph - N/A   Overcast
11:56 AM 45.0 °F 41.8 °F 30.0 °F 56% 30.34 in 10.0 mi NE 5.8 mph - N/A   Overcast
12:56 PM 46.4 °F 45.2 °F 30.2 °F 53% 30.29 in 10.0 mi Variable 3.5 mph - N/A   Overcast
1:56 PM 44.1 °F 39.0 °F 30.9 °F 60% 30.32 in 10.0 mi East 9.2 mph - N/A   Mostly Cloudy
2:56 PM 44.1 °F 39.0 °F 30.0 °F 58% 30.32 in 10.0 mi East 9.2 mph - N/A   Mostly Cloudy
3:56 PM 41.0 °F 35.2 °F 28.9 °F 62% 30.34 in 10.0 mi East 9.2 mph - N/A   Scattered Clouds
4:56 PM 39.0 °F 34.8 °F 28.9 °F 67% 30.35 in 10.0 mi ESE 5.8 mph - N/A   Clear
5:56 PM 35.6 °F 32.8 °F 28.4 °F 75% 30.34 in 10.0 mi ENE 3.5 mph - N/A   Clear
6:56 PM 33.1 °F - 28.0 °F 82% 30.39 in 10.0 mi Calm Calm - N/A   Clear
7:56 PM 30.9 °F - 28.0 °F 89% 30.40 in 10.0 mi Calm Calm - N/A   Clear
8:56 PM 28.4 °F - 26.6 °F 93% 30.35 in 10.0 mi Calm Calm - N/A   Clear
9:56 PM 28.0 °F - 27.0 °F 96% 30.41 in 10.0 mi Calm Calm - N/A   Clear
10:56 PM 28.0 °F - 27.0 °F 96% 30.40 in 9.0 mi Calm Calm - N/A   Clear
11:56 PM 27.0 °F - 26.1 °F 96% 30.40 in 10.0 mi Calm Calm - N/A   Clear